weather.gov     
National Weather Service

Regional Weather Roundup
NWS Homepage
This page is being discontinued on March 12, 2014.
The same data is available at this site. Please update your bookmarks.
Thank you, and we apologize for the inconvenience.
Please send an email to SR-SRH.Webmaster@noaa.gov with any concerns.


Current Version
Previous Version:    01  02  03  04  05  06  07  08  09  10  11  12  13  14  15  16  17  18  19  20  21  22  23  24  25  26  27  
[Printable]
761
ASUS41 KGYX 271905
RWRGYX
WEATHER ROUNDUP FOR MAINE AND NEW HAMPSHIRE
NATIONAL WEATHER SERVICE GRAY ME
300 PM EDT WED AUG 27 2014

MEZ002-005-006-010-012-015-018-020-021-024-026-027-029-272000-
MAINE

CITY           SKY/WX    TMP DP  RH WIND       PRES   REMARKS
PORTLAND       MOSUNNY   88  65  46 W13G21    29.82F HX  90
SANFORD        MOSUNNY   86  64  48 W8        29.85F
BAR HARBOR     PTSUNNY   75  66  73 SW9       29.82F
WISCASSET      SUNNY     82  68  62 SW6       29.84F
ROCKLAND       SUNNY     79  66  65 SW15      29.81F
FRYEBURG       SUNNY     88  61  40 VRB3      29.84F
LEWISTONAUBURN SUNNY     86  66  51 W5        29.84F
AUGUSTA        MOSUNNY   85  67  54 SW6       29.83F
WATERVILLE     SUNNY     84  66  54 W6        29.78F
BANGOR         MOSUNNY   85  63  47 W8        29.81F
GREENVILLE       N/A     80  57  45 VRB5      29.85F
MILLINOCKET    MOSUNNY   85  58  39 VRB7G17   29.82F
HOULTON        MOSUNNY   82  58  43 W9G18     29.77F
PRESQUE ISLE   MOSUNNY   79  59  50 N16       29.78S
FRENCHVILLE    CLOUDY    71  56  58 NW12G20   29.82S
CARIBOU        MOSUNNY   79  58  48 NW10G18   29.79S
$$

NHZ002-005-008-009-011-012-014-272000-
NEW HAMPSHIRE

CITY           SKY/WX    TMP DP  RH WIND       PRES   REMARKS
ROCHESTER      MOSUNNY   86  65  49 VRB5      29.85F
NASHUA         PTSUNNY   89  67  48 NW8       29.87F HX  92
MANCHESTER     MOSUNNY   87  65  47 W7        29.86F
CONCORD        SUNNY     86  66  51 SW13      29.87F
LACONIA        PTSUNNY   86  63  45 W10       29.85F
PLYMOUTH       FAIR      83  69  62 W7        29.86F
BERLIN         SUNNY     83  58  42 NW8       29.89F
WHITEFIELD     MOSUNNY   81  62  52 W7        29.89F
JAFFREY        PTSUNNY   83  67  58 SW8       29.93F
LEBANON        SUNNY     86  61  42 SW9       29.87F
MT WASHINGTON  NOT AVBL
$$

VTZ005-007-008-272000-
VERMONT

CITY           SKY/WX    TMP DP  RH WIND       PRES   REMARKS
ST JOHNSBURY     N/A     83  60  45 MISG      29.87F
MONTPELIER     PTSUNNY   80  64  58 NW8       29.94F
BURLINGTON     MOSUNNY   83  62  49 NE12      29.88F
$$

MAZ007-012-024-CTZ003-RIZ002-NYZ038-NYZ072-272000-
SOUTHERN NEW ENGLAND AND NY

CITY           SKY/WX    TMP DP  RH WIND       PRES   REMARKS
BOSTON         MOSUNNY   89  66  46 SW16G24   29.86F HX  91
WORCESTER      MOSUNNY   83  67  58 W14       29.94F
NANTUCKET      SUNNY     75  68  78 SW12      29.95F
PROVIDENCE     MOSUNNY   87  62  43 W17G23    29.91F
HARTFORD       MOSUNNY   89  66  46 SW12      29.88F HX  91
ALBANY         CLOUDY    81  70  69 W7        29.92F
NEW YORK CITY  MOSUNNY   89  61  38 SW8G28    29.91F
$$

ANZ081-ANZ082-ANZ150-NHZ014-MEZ023>029-272000-
COASTAL MARINE OBSERVATIONS

STATION/POSITION TIME  TEMP    WIND        PRES    WAVE
                       AIR SEA DIR/SP/G            HT/PER
                 (UTC) (F)     (DEG/KT/KT) (MB)    (FT/S)
MATINICUS ROCK   1800          230/ 14/ 16 1010.6F
PORTLAND WX BUOY 1850   68 63  190/ 12/ 14 1009.5F   3/ 9
WELLS            1800      57  200/  7/ 10 1010.0F
ISLE OF SHOALS   1800   79     220/  8/  8 1010.7F
JEFFREYS LEDGE   1821      67                N/A     3/ 9
CASHES LEDGE BUO 1850   70 67              1010.2F   5/ 5
$$

.............KEY..............
   WCI - WIND CHILL
   TC  - TEMPERATURE IN CELSIUS
   VSB - VISIBILITY IN MILES
   HX  - HEAT INDEX
   FAIR- INDICATES FEW OR NO CLOUDS BELOW 12,000 FT, WITH NO
         SIGNIFICANT WEATHER AND/OR OBSTRUCTIONS TO VISIBILITY.






U.S. Dept. of Commerce
NOAA National Weather Service
1325 East West Highway
Silver Spring, MD 20910
E-mail: w-nws.webmaster@noaa.gov
Page last modified: May 16, 2007
NATIONAL WEATHER SERVICE: for Safety, for Work, for Fun - FOR LIFE